Tracking 18917 objects as of 16-Jan-2018
HD Live streaming from Space Station
objects crossing your sky now

YAMAL 202

Track YAMAL 202 now!
YAMAL 202 is classified as:


NORAD ID: 28089
Int'l Code: 2003-053A
Perigee: 35,774.6 km
Apogee: 35,810.4 km
Inclination: 0.1 °
Period: 1,436.0 minutes
Semi major axis: 42163 km
RCS: 0.003 m2 (small)
Launch date: November 24, 2003
Source: Commonwealth of Independent States (former USSR) (CIS)
Launch site: TYURATAM MISSILE AND SPACE COMPLEX (TTMTR)

18 C-band; provide communications for gas corporation operations throughout Eurasian continent.
aabbcc
Your satellite tracking list
Your tracking list is empty




NASA's NSSDC Master Catalog

Two Line Element Set (TLE):
1 28089U 03053A   18015.14212566 +.00000120 +00000-0 +00000-0 0  9993
2 28089 000.0743 091.2089 0004241 193.4542 290.0714 01.00276318051840
Source of the keplerian elements: AFSPC